{"data":{"norad_id":68648,"epoch":"2026-05-24T15:37:30.065088Z","epoch_age_seconds":115457,"freshness":"FRESH","line1":"1 68648U 26075N   26144.65104242  .00000043  00000+0  38123-4 0  9990","line2":"2 68648  88.9883 323.4177 0010420  70.9815 289.2472 13.63974137  6624","mean_motion":13.63974137,"eccentricity":0.001042,"inclination_deg":88.9883,"raan_deg":323.4177,"arg_perigee_deg":70.9815,"mean_anomaly_deg":289.2472,"bstar":3.8123e-5,"rev_number":662,"period_min":105.57384930826,"perigee_km":1013.5740276758,"apogee_km":1028.9944215079,"semimajor_km":7399.4212245918,"source":"CELESTRAK","updated_at":"2026-05-25T13:38:07.993247Z"}}